This demonstration page uses our WeatherBlox Daily Observations layout. Learn more.

Left ArrowRight Arrow

44.8408, -93.29828

Hourly Observations for November 6, 2015

Temp ( °F °C ) Dew Point ( °F °C ) Humidity (%) Winds ( mph kmh ) Pressure ( in mb ) Visibility ( mi km ) Precip ( " mm )
12:53 am 00:53 Cloudy 42 5.6 34 1.1 73 73 W 10 17 29.77 1008 10 16 0.00 0.00
1:53 am 01:53 Cloudy 41 5 33 0.6 73 73 W 16 26 29.80 1009 10 16 0.00 0.00
2:53 am 02:53 Cloudy 41 5 34 1.1 76 76 W 10 17 29.83 1010 10 16 0.00 0.00
3:53 am 03:53 Cloudy 41 5 34 1.1 76 76 WNW 14 22 29.84 1010 10 16 0.00 0.00
4:53 am 04:53 Cloudy 41 5 34 1.1 76 76 W 10 17 29.86 1011 10 16 0.00 0.00
5:53 am 05:53 Cloudy 42 5.6 35 1.7 76 76 W 12 19 29.88 1012 10 16 0.00 0.00
6:53 am 06:53 Cloudy 42 5.6 35 1.7 76 76 W 13 20 29.91 1013 10 16 0.00 0.00
7:53 am 07:53 Cloudy 42 5.6 34 1.1 73 73 W 12 19 29.95 1014 10 16 0.00 0.00
8:53 am 08:53 Cloudy 42 5.6 34 1.1 73 73 W 13 20 29.98 1015 10 16 0.00 0.00
9:53 am 09:53 Mostly Cloudy 43 6.1 33 0.6 68 68 WNW 12 19 30.01 1016 10 16 0.00 0.00
10:53 am 10:53 Mostly Cloudy 45 7.2 33 0.6 63 63 W 15 24 30.04 1017 10 16 0.00 0.00
11:53 am 11:53 Mostly Cloudy 45 7.2 33 0.6 63 63 W 13 20 30.03 1017 10 16 0.00 0.00
12:53 pm 12:53 Cloudy 46 7.8 33 0.6 61 61 W 15 24 30.04 1017 10 16 0.00 0.00
1:10 pm 13:10 Cloudy 46 7.8 33 0.6 61 61 WSW 12 19 30.03 1017 10 16 0.00 0.00
1:53 pm 13:53 Cloudy 45 7.2 34 1.1 66 66 W 18 30 30.05 1018 10 16 0.00 0.00
2:53 pm 14:53 Cloudy 45 7.2 34 1.1 66 66 W 14 22 30.06 1018 9 14 0.00 0.00
3:46 pm 15:46 Cloudy 45 7 34 1 66 66 W 7 11 30.06 1018 9 14 0.00 0.00
3:53 pm 15:53 Cloudy 45 7.2 34 1.1 66 66 W 8 13 30.07 1018 9 14 0.00 0.00
4:53 pm 16:53 Mostly Cloudy 45 7.2 34 1.1 66 66 W 10 17 30.08 1019 8 13 0.00 0.00
5:53 pm 17:53 Partly Cloudy 44 6.7 33 0.6 65 65 W 8 13 30.10 1019 10 16 0.00 0.00
6:53 pm 18:53 Mostly Clear 43 6.1 31 -0.6 63 63 WNW 9 15 30.13 1020 10 16 0.00 0.00
7:53 pm 19:53 Mostly Clear 41 5 31 -0.6 67 67 W 7 11 30.14 1021 10 16 0.00 0.00
8:53 pm 20:53 Mostly Cloudy 42 5.6 32 0 68 68 WSW 8 13 30.15 1021 10 16 0.00 0.00
9:53 pm 21:53 Partly Cloudy 40 4.4 33 0.6 77 77 WSW 7 11 30.17 1022 10 16 0.00 0.00
10:53 pm 22:53 Mostly Cloudy 40 4.4 33 0.6 77 77 WSW 6 9 30.17 1022 10 16 0.00 0.00
11:53 pm 23:53 Mostly Cloudy 40 4.4 33 0.6 77 77 W 9 15 30.18 1022 10 16 0.00 0.00

Powered by AerisWeather